DW6033 Weather Reports


time (UTC)temp
C
wind
direction
speed
KPH
gust
KPH
rain 1hr
cm
rain 24hr
cm
rain mn
cm
humidity
%
barometer
mb
20260902063101 13 287 0.0 4.8 0.00 0.00 0.00 97 1022.3
20260902061606 13 287 0.0 4.8 0.00 0.00 0.00 97 1022.2
20260902060047 13 286 1.6 4.8 0.00 0.00 0.00 97 1022.0
20260902054544 13 286 0.0 4.8 0.00 0.00 0.00 97 1021.9
20260902053041 13 286 0.0 6.4 0.00 0.00 0.00 97 1021.8
20260902051538 13 286 4.8 8.0 0.00 0.00 0.00 96 1021.6
20260902050040 13 273 0.0 4.8 0.00 0.00 0.00 96 1021.5
20260902044535 13 273 3.2 4.8 0.00 0.00 0.00 96 1021.3
20260902043035 14 273 3.2 4.8 0.00 0.00 0.00 96 1021.1
20260902041544 14 273 3.2 6.4 0.00 0.00 0.00 95 1020.9
20260902040030 14 267 3.2 6.4 0.00 0.00 0.00 95 1020.7
20260902034526 14 275 3.2 6.4 0.00 0.00 0.00 95 1020.7
20260902033026 14 272 3.2 6.4 0.00 0.00 0.00 95 1020.8
20260902031525 14 275 3.2 6.4 0.00 0.00 0.00 95 1020.8
20260902030023 14 294 1.6 3.2 0.00 0.00 0.00 95 1020.6
20260902024524 14 270 0.0 3.2 0.00 0.00 0.00 94 1020.6
20260902023022 14 270 1.6 3.2 0.00 0.00 0.00 94 1020.6
20260902021521 15 270 3.2 4.8 0.00 0.00 0.00 94 1020.5
20260902020040 15 265 3.2 6.4 0.00 0.00 0.00 93 1020.5
20260902014519 15 284 3.2 6.4 0.00 0.00 0.00 93 1020.4
20260902013019 15 270 3.2 4.8 0.00 0.00 0.00 92 1020.3
20260902011519 15 275 3.2 6.4 0.00 0.00 0.00 92 1020.3
20260902010025 15 273 3.2 6.4 0.00 0.00 0.00 91 1020.2
20260902004516 16 309 3.2 6.4 0.00 0.00 0.00 90 1019.9
20260902003015 16 277 1.6 4.8 0.00 0.00 0.00 90 1019.9
20260902001518 16 325 1.6 4.8 0.00 0.00 0.00 89 1019.8
20260902000024 17 275 1.6 4.8 0.00 0.00 0.00 88 1019.8
20260901234513 17 305 1.6 4.8 0.00 0.00 0.00 87 1019.7
20260901233012 17 270 1.6 4.8 0.00 0.00 0.00 85 1019.8
20260901231516 18 270 1.6 4.8 0.00 0.00 0.00 85 1019.7
20260901230011 18 250 1.6 4.8 0.00 0.00 0.00 84 1019.6
20260901224514 18 185 1.6 9.7 0.00 0.00 0.00 84 1019.4
20260901223008 18 184 3.2 14.5 0.00 0.00 0.00 83 1019.4
20260901221517 19 158 4.8 14.5 0.00 0.00 0.00 83 1019.3
20260901220007 19 146 3.2 12.9 0.00 0.00 0.00 82 1019.3
20260901214503 20 196 6.4 12.9 0.00 0.00 0.00 82 1019.3
20260901213002 20 181 4.8 11.3 0.00 0.00 0.00 81 1019.0
20260901211600 20 111 6.4 12.9 0.00 0.00 0.00 81 1018.9
20260901210110 20 144 9.7 16.1 0.00 0.00 0.00 82 1018.9
20260901204558 19 133 9.7 17.7 0.00 0.00 0.00 81 1018.8
20260901203115 19 155 9.7 17.7 0.00 0.00 0.00 82 1018.7
20260901201556 19 157 11.3 19.3 0.00 0.00 0.00 82 1018.8
20260901200059 19 150 9.7 20.9 0.00 0.00 0.00 81 1018.9
20260901194603 20 156 11.3 19.3 0.00 0.00 0.00 79 1019.1
20260901193054 20 157 11.3 17.7 0.00 0.00 0.00 79 1019.1
20260901191600 20 145 8.0 16.1 0.00 0.00 0.00 80 1019.0
20260901190109 19 148 9.7 16.1 0.00 0.00 0.00 80 1019.0
20260901184551 18 133 12.9 16.1 0.00 0.00 0.00 83 1019.0
20260901183050 19 140 8.0 12.9 0.00 0.00 0.00 84 1019.0
20260901181550 19 113 6.4 8.0 0.00 0.00 0.00 82 1019.0
20260901180049 19 105 8.0 11.3 0.00 0.00 0.00 83 1018.8
20260901174559 19 116 4.8 8.0 0.00 0.00 0.00 82 1018.8
20260901173046 19 117 4.8 8.0 0.00 0.00 0.00 83 1018.8
20260901171547 19 131 3.2 4.8 0.00 0.00 0.00 82 1018.9
20260901170044 18 126 3.2 6.4 0.00 0.00 0.00 82 1018.9
20260901164546 18 126 3.2 6.4 0.00 0.00 0.00 81 1018.9
20260901163040 18 146 3.2 6.4 0.00 0.00 0.00 82 1018.8
20260901161540 18 128 1.6 4.8 0.00 0.00 0.00 82 1018.9
20260901160040 17 126 4.8 6.4 0.00 0.00 0.00 82 1019.2
20260901154538 17 129 3.2 6.4 0.00 0.00 0.00 82 1019.2
20260901153043 17 118 4.8 8.0 0.00 0.00 0.00 82 1019.3
20260901151538 17 114 6.4 11.3 0.00 0.00 0.00 83 1019.2
20260901150042 17 121 9.7 11.3 0.00 0.00 0.00 81 1019.1
20260901144537 17 117 12.9 16.1 0.00 0.00 0.00 83 1019.0
20260901143038 17 119 9.7 14.5 0.00 0.00 0.00 81 1019.1
20260901141536 18 101 9.7 16.1 0.00 0.00 0.00 79 1019.2
20260901140033 17 105 8.0 16.1 0.00 0.00 0.00 81 1019.1
20260901134534 17 80 8.0 14.5 0.00 0.00 0.00 83 1019.2
20260901133037 17 121 9.7 12.9 0.00 0.00 0.00 82 1019.4
20260901131527 16 106 9.7 12.9 0.00 0.00 0.00 84 1019.2
20260901130027 16 131 4.8 8.0 0.00 0.00 0.00 87 1019.2
20260901124526 16 129 8.0 11.3 0.00 0.00 0.00 88 1019.2
20260901123027 15 107 6.4 11.3 0.00 0.00 0.00 90 1019.2
20260901121525 15 113 4.8 6.4 0.00 0.00 0.00 90 1019.0
20260901120023 15 136 3.2 4.8 0.00 0.00 0.00 90 1019.0
20260901114523 15 279 1.6 3.2 0.00 0.00 0.00 92 1019.0
20260901113021 14 279 0.0 0.0 0.00 0.00 0.00 95 1018.9
20260901111520 13 279 0.0 3.2 0.00 0.00 0.00 95 1018.6
20260901110019 13 269 1.6 4.8 0.00 0.00 0.00 95 1018.8
20260901104537 13 305 1.6 4.8 0.00 0.00 0.00 95 1018.5
20260901103017 13 305 1.6 4.8 0.00 0.00 0.00 95 1018.4
20260901101520 12 305 0.0 3.2 0.00 0.00 0.00 95 1018.2
20260901100014 12 305 1.6 3.2 0.00 0.00 0.00 94 1018.2
20260901094512 12 305 1.6 3.2 0.00 0.00 0.00 94 1018.1
20260901093012 12 305 1.6 3.2 0.00 0.00 0.00 94 1018.2
20260901091516 12 305 1.6 4.8 0.00 0.00 0.00 94 1018.2
20260901090015 12 302 1.6 4.8 0.00 0.00 0.00 94 1018.2
20260901084509 12 281 3.2 4.8 0.00 0.00 0.00 93 1018.3
20260901083008 12 305 0.0 4.8 0.00 0.00 0.00 93 1018.1
20260901081506 12 277 3.2 6.4 0.00 0.00 0.00 92 1018.3
20260901080006 12 288 1.6 4.8 0.00 0.00 0.00 91 1018.3
20260901074504 12 297 1.6 4.8 0.00 0.00 0.00 91 1018.3
20260901073001 13 304 1.6 4.8 0.00 0.00 0.00 90 1018.2
20260901071622 13 312 3.2 4.8 0.00 0.00 0.00 89 1018.2
20260901070059 13 281 3.2 4.8 0.00 0.00 0.00 88 1018.4
20260901064558 13 306 0.0 6.4 0.00 0.00 0.00 88 1018.4